Location: Cisewo
(53.3833°N, 14.9000°E)
Time: 11:26:30
(UTC+00:00)

Cosmos 2221 - Pass Details

Date: 18 April 2021
Orbit: 593 x 614 km, 82.5° (Epoch: 15 May)

Event Time Altitude Azimuth Distance (km) Brightness Sun altitude
Exits shadow 22:30:07 25° 270° (W) 1,212 4.1 -25.2°
Maximum altitude 22:31:03 28° 293° (WNW) 1,146 4.2 -25.2°
Drops below altitude 10° 22:34:46 10° 352° (N) 1,947 6.2 -25.2°
Sets 22:37:16 0° 5° (N) 2,857 7.3 -25.3°
